This demonstration page uses our WeatherBlox Daily Observations layout. Learn more.

Left ArrowRight Arrow

40.97296, -117.73568

Hourly Observations for August 5, 2015

Temp ( °F °C ) Dew Point ( °F °C ) Humidity (%) Winds ( mph kmh ) Pressure ( in mb ) Visibility ( mi km ) Precip ( " mm )
12:56 am 00:56 Partly Cloudy 75 23.9 37 2.8 25 25 WNW 12 19 29.82 1010 10 16 0.00 0.03
2:56 am 02:56 Clear 67 19.4 42 5.6 41 41 Calm 29.85 1011 10 16 0.00 0.03
3:56 am 03:56 Cloudy 66 18.9 42 5.6 42 42 W 8 13 29.88 1012 10 16 0.00 0.00
4:56 am 04:56 Partly Cloudy 63 17.2 45 7.2 52 52 ENE 5 7 29.88 1012 10 16 0.00 0.03
5:56 am 05:56 Sunny 63 17.2 43 6.1 48 48 Calm 29.87 1012 10 16 0.00 0.00
6:56 am 06:56 Mostly Cloudy 62 16.7 45 7.2 54 54 W 8 13 29.90 1013 10 16 0.00 0.00
8:56 am 08:56 Mostly Sunny 72 22.2 44 6.7 37 37 WSW 6 9 29.80 1009 10 16 0.00 0.00
10:56 am 10:56 Partly Cloudy 78 25.6 42 5.6 28 28 W 15 24 29.93 1014 10 16 0.00 0.00
11:56 am 11:56 Sunny 76 24.4 40 4.4 27 27 VRB 3 6 29.93 1014 10 16 0.00 0.00
12:56 pm 12:56 Mostly Sunny 80 26.7 40 4.4 24 24 VRB 7 11 29.91 1013 10 16 0.00 0.00
2:56 pm 14:56 Mostly Sunny 84 28.9 37 2.8 19 19 WSW 15 24 29.90 1013 10 16 0.00 0.00
3:56 pm 15:56 Sunny 85 29.4 32 0 15 15 W 20 31 29.89 1012 10 16 0.00 0.00
4:56 pm 16:56 Sunny 83 28.3 37 2.8 19 19 VRB 7 11 29.89 1012 10 16 0.00 0.00
6:56 pm 18:56 Sunny 83 28.3 36 2.2 19 19 WNW 9 15 29.88 1012 10 16 0.00 0.00
7:56 pm 19:56 Sunny 76 24.4 36 2.2 23 23 W 5 7 29.90 1013 10 16 0.00 0.00
8:04 pm 20:04 Clear with Nearby Thunderstorms 75 24 36 2 24 24 W 3 6 29.77 1008 10 16 0.00 0.00
8:56 pm 20:56 Clear with Nearby Thunderstorms 66 18.9 40 4.4 39 39 SSE 7 11 29.92 1013 10 16 0.00 0.00
9:56 pm 21:56 Mostly Cloudy 65 18.3 36 2.2 34 34 SSE 5 7 29.92 1013 10 16 0.00 0.00
10:56 pm 22:56 Mostly Clear 61 16.1 39 3.9 44 44 SSE 8 13 29.91 1013 10 16 0.00 0.00
11:56 pm 23:56 Clear 61 16.1 34 1.1 36 36 ENE 3 6 29.92 1013 10 16 0.00 0.00

Powered by AerisWeather